Time,TemperatureF,DewpointF,PressureIn,WindDirection,WindDirectionDegrees,WindSpeedMPH,WindSpeedGustMPH,Humidity,HourlyPrecipIn,Conditions,Clouds,dailyrainin,SoftwareType,DateUTC
2013-06-14 00:23:00,39.0,-99.9,-100.00,North,-999,-999.0,-999.0,-999,-99.99,,,0.15,,2013-06-14 06:23:00,
2013-06-14 00:34:00,39.0,-99.9,-100.00,North,-999,-999.0,-999.0,-999,-99.99,,,0.15,,2013-06-14 06:34:00,
2013-06-14 00:44:00,39.0,-99.9,-100.00,North,-999,-999.0,-999.0,-999,-99.99,,,0.15,,2013-06-14 06:44:00,
2013-06-14 01:33:00,37.0,-99.9,-100.00,North,-999,-999.0,-999.0,-999,0.01,,,0.16,,2013-06-14 07:33:00,
2013-06-14 01:44:00,37.0,-99.9,-100.00,North,-999,-999.0,-999.0,-999,0.01,,,0.16,,2013-06-14 07:44:00,
2013-06-14 02:23:00,35.0,-99.9,-100.00,North,-999,-999.0,-999.0,-999,-99.99,,,0.15,,2013-06-14 08:23:00,
2013-06-14 02:33:00,35.0,-99.9,-100.00,North,-999,-999.0,-999.0,-999,-99.99,,,0.15,,2013-06-14 08:33:00,
2013-06-14 02:43:00,35.0,-99.9,-100.00,North,-999,-999.0,-999.0,-999,-99.99,,,0.15,,2013-06-14 08:43:00,
2013-06-14 03:22:00,33.0,-99.9,-100.00,North,-999,-999.0,-999.0,-999,0.01,,,0.16,,2013-06-14 09:22:00,
2013-06-14 03:33:00,33.0,-99.9,-100.00,North,-999,-999.0,-999.0,-999,0.01,,,0.16,,2013-06-14 09:33:00,
2013-06-14 03:43:00,33.0,-99.9,-100.00,North,-999,-999.0,-999.0,-999,0.01,,,0.16,,2013-06-14 09:43:00,
2013-06-14 04:22:00,33.0,-99.9,-100.00,North,-999,-999.0,-999.0,-999,0.00,,,-99.99,,2013-06-14 10:22:00,
2013-06-14 04:34:00,33.0,-99.9,-100.00,North,-999,-999.0,-999.0,-999,0.00,,,-99.99,,2013-06-14 10:34:00,
2013-06-14 04:44:00,33.0,-99.9,-100.00,North,-999,-999.0,-999.0,-999,0.00,,,-99.99,,2013-06-14 10:44:00,
2013-06-14 05:23:00,33.0,-99.9,-100.00,North,-999,-999.0,-999.0,-999,0.00,,,0.16,,2013-06-14 11:23:00,
2013-06-14 05:33:00,33.0,-99.9,-100.00,North,-999,-999.0,-999.0,-999,0.00,,,0.16,,2013-06-14 11:33:00,
2013-06-14 05:43:00,33.0,-99.9,-100.00,North,-999,-999.0,-999.0,-999,0.00,,,0.16,,2013-06-14 11:43:00,
2013-06-14 06:33:00,34.0,-99.9,-100.00,North,-999,-999.0,-999.0,-999,0.00,,,0.16,,2013-06-14 12:33:00,
2013-06-14 06:44:00,34.0,-99.9,-100.00,North,-999,-999.0,-999.0,-999,0.00,,,0.16,,2013-06-14 12:44:00,
2013-06-14 07:22:00,35.0,-99.9,-100.00,North,-999,-999.0,-999.0,-999,0.01,,,0.17,,2013-06-14 13:22:00,
2013-06-14 07:33:00,35.0,-99.9,-100.00,North,-999,-999.0,-999.0,-999,0.01,,,0.17,,2013-06-14 13:33:00,
2013-06-14 07:43:00,35.0,-99.9,-100.00,North,-999,-999.0,-999.0,-999,0.01,,,0.17,,2013-06-14 13:43:00,
2013-06-14 08:23:00,37.0,-99.9,-100.00,North,-999,-999.0,-999.0,-999,-99.99,,,0.16,,2013-06-14 14:23:00,
2013-06-14 08:34:00,37.0,-99.9,-100.00,North,-999,-999.0,-999.0,-999,-99.99,,,0.16,,2013-06-14 14:34:00,
2013-06-14 08:43:00,37.0,-99.9,-100.00,North,-999,-999.0,-999.0,-999,-99.99,,,0.16,,2013-06-14 14:43:00,
2013-06-14 09:23:00,39.0,-99.9,-100.00,North,-999,-999.0,-999.0,-999,0.01,,,0.15,,2013-06-14 15:23:00,
2013-06-14 09:34:00,39.0,-99.9,-100.00,North,-999,-999.0,-999.0,-999,0.01,,,0.15,,2013-06-14 15:34:00,
2013-06-14 09:44:00,39.0,-99.9,-100.00,North,-999,-999.0,-999.0,-999,0.01,,,0.15,,2013-06-14 15:44:00,
2013-06-14 10:23:00,45.0,-99.9,-100.00,North,-999,-999.0,-999.0,-999,0.00,,,0.14,,2013-06-14 16:23:00,
2013-06-14 10:33:00,45.0,-99.9,-100.00,North,-999,-999.0,-999.0,-999,0.00,,,0.14,,2013-06-14 16:33:00,
2013-06-14 10:43:00,45.0,-99.9,-100.00,North,-999,-999.0,-999.0,-999,0.00,,,0.14,,2013-06-14 16:43:00,
2013-06-14 11:23:00,48.0,-99.9,-100.00,North,-999,-999.0,-999.0,-999,0.00,,,0.14,,2013-06-14 17:23:00,
2013-06-14 11:34:00,48.0,-99.9,-100.00,North,-999,-999.0,-999.0,-999,0.00,,,0.14,,2013-06-14 17:34:00,
2013-06-14 11:43:00,48.0,-99.9,-100.00,North,-999,-999.0,-999.0,-999,0.00,,,0.14,,2013-06-14 17:43:00,
2013-06-14 12:22:00,49.0,-99.9,-100.00,North,-999,-999.0,-999.0,-999,0.00,,,0.14,,2013-06-14 18:22:00,
2013-06-14 12:33:00,49.0,-99.9,-100.00,North,-999,-999.0,-999.0,-999,0.00,,,0.14,,2013-06-14 18:33:00,
2013-06-14 12:43:00,49.0,-99.9,-100.00,North,-999,-999.0,-999.0,-999,0.00,,,0.14,,2013-06-14 18:43:00,
2013-06-14 13:33:00,53.0,-99.9,-100.00,North,-999,-999.0,-999.0,-999,0.00,,,0.14,,2013-06-14 19:33:00,
2013-06-14 13:43:00,53.0,-99.9,-100.00,North,-999,-999.0,-999.0,-999,0.00,,,0.14,,2013-06-14 19:43:00,
2013-06-14 14:22:00,55.0,-99.9,-100.00,North,-999,-999.0,-999.0,-999,0.00,,,0.14,,2013-06-14 20:22:00,
2013-06-14 14:33:00,55.0,-99.9,-100.00,North,-999,-999.0,-999.0,-999,0.00,,,0.14,,2013-06-14 20:33:00,
2013-06-14 14:43:00,55.0,-99.9,-100.00,North,-999,-999.0,-999.0,-999,0.00,,,0.14,,2013-06-14 20:43:00,
2013-06-14 15:22:00,55.0,-99.9,-100.00,North,-999,-999.0,-999.0,-999,0.00,,,0.14,,2013-06-14 21:22:00,
2013-06-14 15:34:00,55.0,-99.9,-100.00,North,-999,-999.0,-999.0,-999,0.00,,,0.14,,2013-06-14 21:34:00,
2013-06-14 15:43:00,55.0,-99.9,-100.00,North,-999,-999.0,-999.0,-999,0.00,,,0.14,,2013-06-14 21:43:00,
2013-06-14 16:23:00,59.0,-99.9,-100.00,North,-999,-999.0,-999.0,-999,0.00,,,0.14,,2013-06-14 22:23:00,
2013-06-14 16:34:00,59.0,-99.9,-100.00,North,-999,-999.0,-999.0,-999,0.00,,,0.14,,2013-06-14 22:34:00,
2013-06-14 16:43:00,59.0,-99.9,-100.00,North,-999,-999.0,-999.0,-999,0.00,,,0.14,,2013-06-14 22:43:00,
2013-06-14 17:33:00,57.0,-99.9,-100.00,North,-999,-999.0,-999.0,-999,0.00,,,0.14,,2013-06-14 23:33:00,
2013-06-14 17:43:00,57.0,-99.9,-100.00,North,-999,-999.0,-999.0,-999,0.00,,,0.14,,2013-06-14 23:43:00,
2013-06-14 18:23:00,60.0,-99.9,-100.00,North,-999,-999.0,-999.0,-999,0.00,,,0.15,,2013-06-15 00:23:00,
2013-06-14 18:34:00,60.0,-99.9,-100.00,North,-999,-999.0,-999.0,-999,0.00,,,0.15,,2013-06-15 00:34:00,
2013-06-14 18:43:00,60.0,-99.9,-100.00,North,-999,-999.0,-999.0,-999,0.00,,,0.15,,2013-06-15 00:43:00,
2013-06-14 19:22:00,59.0,-99.9,-100.00,North,-999,-999.0,-999.0,-999,0.00,,,-99.99,,2013-06-15 01:22:00,
2013-06-14 19:33:00,59.0,-99.9,-100.00,North,-999,-999.0,-999.0,-999,0.00,,,-99.99,,2013-06-15 01:33:00,
2013-06-14 19:43:00,59.0,-99.9,-100.00,North,-999,-999.0,-999.0,-999,0.00,,,-99.99,,2013-06-15 01:43:00,
2013-06-14 20:34:00,52.0,-99.9,-100.00,North,-999,-999.0,-999.0,-999,-99.99,,,0.12,,2013-06-15 02:34:00,
2013-06-14 20:43:00,52.0,-99.9,-100.00,North,-999,-999.0,-999.0,-999,-99.99,,,0.12,,2013-06-15 02:43:00,
2013-06-14 21:24:00,44.0,-99.9,-100.00,North,-999,-999.0,-999.0,-999,0.00,,,-99.99,,2013-06-15 03:24:00,
2013-06-14 21:33:00,44.0,-99.9,-100.00,North,-999,-999.0,-999.0,-999,0.00,,,-99.99,,2013-06-15 03:33:00,
2013-06-14 21:44:00,44.0,-99.9,-100.00,North,-999,-999.0,-999.0,-999,0.00,,,-99.99,,2013-06-15 03:44:00,
2013-06-14 22:22:00,37.0,-99.9,-100.00,North,-999,-999.0,-999.0,-999,0.00,,,0.08,,2013-06-15 04:22:00,
2013-06-14 22:34:00,37.0,-99.9,-100.00,North,-999,-999.0,-999.0,-999,0.00,,,0.08,,2013-06-15 04:34:00,
2013-06-14 22:43:00,37.0,-99.9,-100.00,North,-999,-999.0,-999.0,-999,0.00,,,0.08,,2013-06-15 04:43:00,
2013-06-14 23:22:00,34.0,-99.9,-100.00,North,-999,-999.0,-999.0,-999,0.00,,,0.01,,2013-06-15 05:22:00,
2013-06-14 23:34:00,34.0,-99.9,-100.00,North,-999,-999.0,-999.0,-999,0.00,,,0.01,,2013-06-15 05:34:00,
2013-06-14 23:43:00,34.0,-99.9,-100.00,North,-999,-999.0,-999.0,-999,0.00,,,0.01,,2013-06-15 05:43:00,